Regional Weather Roundup
Issued by NWS Grand Forks, ND

Home | Current Version | Previous Version | Graphics & Text | Print | Product List | Glossary On
Versions: 1 2 3 4 5 6 7 8 9 10 11 12 13 14 15 16 17 18 19 20 21 22 23 24 25 26 27 28 29 30 31 32 33 34 35 36 37 38 39 40 41 42 43 44 45 46 47 48 49 50
000
ASUS43 KFGF 172331
RWRFGF
PRAIRIE TO PINES  WEATHER ROUNDUP
NATIONAL WEATHER SERVICE EASTERN NORTH DAKOTA/GRAND FORKS ND
600 PM CDT THU APR 17 2014

 **SATELLITE DATA USED TO AUGMENT SKY COVER AT AUTOMATED STATIONS**
 *****  WEATHER ACROSS EASTERN NORTH DAKOTA  *****

CITY           SKY/WX    TMP DP  RH WIND       PRES   REMARKS
GRAND FORKS    MOSUNNY   41  13  31 NE7       30.30S
GRAND FRKS AFB MOSUNNY   40  10  29 N8        30.30S
GRAND FRKS NWS   N/A     41 N/A N/A E2          N/A
DEVILS LAKE    CLOUDY    39  10  30 SE10G16   30.24S
FARGO          SUNNY     44  11  26 CALM      30.27F
WAHPETON ARPT  CLEAR     43  12  28 E3        30.28S
$$

 ***** WEATHER ACROSS CENTRAL AND WESTERN NORTH DAKOTA  *****

CITY           SKY/WX    TMP DP  RH WIND       PRES   REMARKS
BISMARCK       CLOUDY    45  20  36 S13       30.16F
MINOT          CLOUDY    42  17  36 E12       30.15F
JAMESTOWN      PTSUNNY   43  13  29 VRB3      30.21F
MINOT AFB      CLOUDY    41  19  41 SE12      30.15F
GARRISON         N/A     43  21  41 S15       30.12F
WILLISTON      CLOUDY    45  27  49 SE17G24   30.04F
DICKINSON      PTSUNNY   43  27  53 SE21      30.03F
HETTINGER      MOSUNNY   46  26  45 S13G24    30.05F
$$

 *****  OTHER AIRPORT OBSERVATIONS IN OUR AREA  *****

CITY           SKY/WX    TMP DP  RH WIND       PRES   REMARKS
WALHALLA         N/A     37   7  28 E3        30.30S
GRAFTON AIRPOR FAIR      39   9  28 N3        30.30S
VALLEY CITY AR NOT AVBL
CANDO          CLOUDY    39   9  28 SE8       30.24F
CAVALIER APRT  FAIR      37   9  30 E3        30.30S
GWINNER        CLEAR     45  14  29 CALM      30.26S
SHEYENNE NWR     N/A     48  13  24 CALM      29.95
ROLLA          FAIR      37  14  38 SE12      30.23S
 ***** THE ABOVE OBSERVATIONS ARE NON NWS ARE NOT QUALITY
       CONTROLLED AND MAY MIS-REPORT RAIN FOR SNOW...
$$

  *****  WEATHER ACROSS NORTHERN MINNESOTA  *****

CITY           SKY/WX    TMP DP  RH WIND       PRES   REMARKS
FLAG ISLAND    SUNNY     36  10  35 CALM      30.28S
WARROAD        SUNNY     37   9  30 E3        30.29F
ROSEAU         SUNNY     39   7  26 E5        30.28S
HALLOCK        CLOUDY    39  10  30 N7        30.30S
THF RVR FALLS  SUNNY     39   9  28 E5        30.28S
BAUDETTE       SUNNY     38   7  27 N8        30.28S
WASKISH        SUNNY     39  16  38 W5        30.26R
CROOKSTON      MOSUNNY   41  14  33 NW3       30.30R
$$
  *****  WEATHER ACROSS CENTRAL AND WEST MINNESOTA  *****

CITY           SKY/WX    TMP DP  RH WIND       PRES   REMARKS
FOSSTON        SUNNY     43  12  28 CALM      30.27S
BEMIDJI        SUNNY     40   2  21 N6        30.24S
PARK RAPIDS    SUNNY     45   3  17 NW8       30.22S
ELBOW LAKE     FAIR      42  17  36 CALM      30.26F
WADENA         SUNNY     43  18  36 W8        30.24R
DETROIT LAKES  SUNNY     41  12  30 N3        30.26F
MOORHEAD       SUNNY     43   9  24 NW1       30.28S
FERGUS FALLS   SUNNY     43  10  26 NW5       30.24S
MORRIS MN      SUNNY     43  19  39 NW3       30.27S
STAPLES        SUNNY     45   7  21 W3        30.24R
$$
  *****  WEATHER ELSEWHERE ACROSS MINNESOTA  *****

CITY           SKY/WX    TMP DP  RH WIND       PRES   REMARKS
DULUTH         PTSUNNY   36  21  54 NW10G18   30.24R
INTRNTL FALLS  SUNNY     38  17  42 E7        30.26S
ELY            CLOUDY    30  21  69 N3        30.26R
CLOQUET        MOSUNNY   37  21  52 N6        30.25S
WHEATON        SUNNY     46  19  34 CALM      30.29S
BRAINERD       SUNNY     47  17  30 VRB3      30.24S
HIBBING        CLOUDY    36  21  54 N12       30.26R
ALEXANDRIA     SUNNY     41  14  33 W3        30.27R
SAINT CLOUD    SUNNY     42  23  46 CALM      30.27S
MINNEAPOLIS    MOSUNNY   42  27  55 W7        30.29S
$$

  *****  WEATHER ACROSS SOUTH DAKOTA  *****

CITY           SKY/WX    TMP DP  RH WIND       PRES   REMARKS
SIOUX FALLS    PTSUNNY   46  23  40 N6        30.27S
BROOKINGS      NOT AVBL
WATERTOWN      SUNNY     40  16  37 S5        30.26S
HURON          CLOUDY    45  17  32 SE8       30.25F
SISSETON         N/A     44  18  35 VRB3      30.26F
ABERDEEN       MOSUNNY   45  18  34 S9        30.24F
MITCHELL       PTSUNNY   49  19  30 S8        30.25F
PIERRE         CLOUDY    46  24  42 S18       30.16F
MOBRIDGE       CLOUDY    43  23  45 S17       30.14F
RAPID CITY     MOSUNNY   53  35  50 SE21G26   29.98F
$$

  *****  SOME WEATHER IN NEARBY STATES *****

CITY           SKY/WX    TMP DP  RH WIND       PRES   REMARKS
GLASGOW MT     CLOUDY    56  30  37 SE16G22   29.85F
GREAT FALLS MT PTSUNNY   57  31  37 S8        29.74F
CHEYENNE WY    MOSUNNY   57  22  25 SW14G23   30.00F
SCOTTSBLUFF NE SUNNY     59  37  44 SE22      30.00F
OMAHA NE       SUNNY     56  24  29 NW3       30.25R
DES MOINES IA  MOSUNNY   55  29  36 NE5       30.25S
DAVENPORT IA   MOSUNNY   55  35  47 W8        30.24R
CHICAGO IL     CLOUDY    59  37  44 W9        30.20R
EAU CLAIRE WI  CLOUDY    38  27  64 N8        30.28R
LA CROSSE WI   CLOUDY    41  30  65 W10       30.28S
$$

  *****  SOME NATIONAL WEATHER *****

CITY           SKY/WX    TMP DP  RH WIND       PRES   REMARKS
LA GUARDIA NY  PTCLDY    45  28  51 SE10      30.65S
RALEIGH NC     PTCLDY    61  36  39 NE8       30.42F
ATLANTA GA     NOT AVBL
NEW ORLEANS LA CLOUDY    64  60  87 E10       30.14S
OKLAHOMA CITY  CLOUDY    59  39  47 NE14      30.20S
ALBUQUERQUE NM MOSUNNY   68  22  17 S10G17    30.09F
SALT LAKE CITY MOSUNNY   70  26  19 S16       29.90F
LOS ANGELES CA PTSUNNY   66  52  60 W13       29.87F
BOISE ID       MOSUNNY   75  31  19 SE14      29.69F
SEATTLE WA     LGT RAIN  52  49  89 S12       29.79F
$$

*** WEATHER ACROSS MANITOBA...SASKATCHEWAN AND ONTARIO ***
                ***ONTARIO***

CITY           SKY/WX    TMP DP  RH WIND       PRES   REMARKS
GERALDTON      LGT SNOW  30  28  93 NE6       30.28S VSB 1   WCI  24
THUNDER BAY    LGT SNOW  32  30  93 NE6       30.25R
SIOUX LOOKOUT  PTSUNNY   34  12  40 E7        30.28S
TORONTO        PTSUNNY   45  25  45 E14       30.38F
BIG TROUT LK   SUNNY     32   7  34 S5        30.30
PICKLE LAKE    PTSUNNY   36   1  23 W5        30.27F
DRYDEN         SUNNY     36   3  25 E6        30.26S
KENORA         SUNNY     36   3  25 VRB5      30.27S
$$
                *** MANITOBA***

CITY           SKY/WX    TMP DP  RH WIND       PRES   REMARKS
BRANDON        PTSUNNY   34  18  51 E17       30.27F WCI  23
DAUPHIN        SUNNY     36  12  38 SE14      30.28S
ISLAND LAKE    PTSUNNY   36   9  32 NW5       30.32F
PILOT MOUND      N/A     39   9  28 SE6         N/A
THE PAS        MOSUNNY   34   9  35 SE7       30.29F
THOMPSON       SUNNY     37  12  35 W10       30.28S
WINNIPEG       SUNNY     36   3  25 NE8       30.34S
LYNN LAKE      SUNNY     36   3  25 CALM      30.24
CHURCHILL      PTSUNNY   27  18  69 NW14      30.22R WCI  15
GILLAM         MOSUNNY   34  16  47 W7        30.27S
$$
                ***SASKATCHEWAN***

CITY           SKY/WX    TMP DP  RH WIND       PRES   REMARKS
ESTEVAN        PTSUNNY   39  21  48 SE20      30.10F
KINDERSLEY     PTSUNNY   50  34  53 SE23      29.79F
LLOYDMINSTER   FLURRIES  28  27  93 E15       29.91S WCI  17
PRINCE ALBERT  PTSUNNY   34  19  55 SE16G29   30.11F WCI  23
REGINA         CLOUDY    41  23  48 SE23G32   30.05F
YORKTON        SUNNY     36  12  38 SE18G24   30.18F
N. BATTLEFORD  LGT RAIN  34  28  80 E16       29.98F WCI  23
LA RONGE       SUNNY     37  12  35 E14G23    30.16F
SASKATOON      FLURRIES  36  27  69 SE20G26   30.02F
SWIFT CURRENT  PTSUNNY   50  30  46 S14G23    29.82F
$$
NOTE: THESE ARE AUTOMATED STATIONS WITH LIMITED QUALITY CONTROL
      "FAIR" INDICATES FEW OR NO CLOUDS BELOW 12,000 FEET WITH NO
      SIGNIFICANT WEATHER AND/OR OBSTRUCTIONS TO VISIBILITY.
      SKY/WX - SKY CONDITION AND SIGNIFICANT WEATHER.
      TMP - AIR TEMPERATURE.    DP   - DEWPOINT TEMPERATURE.
      RH  - RELATIVE HUMIDITY.  PRES - PRESSURE.
      HX  - HEAT INDEX.         WCI  - WIND CHILL INDEX.
$



USA.gov is the U.S. government's official web portal to all federal, state and local government web resources and services.